Location: Brest
(52.1000°N, 23.7000°E)
Time: 12:15:02
(UTC+02:00)

Genesis I - Visible Passes

Search period start: 23 March 2019 00:00
Search period end: 02 April 2019 01:00
Orbit: 476 x 550 km, 64.5° (Epoch: 22 March)

Date Brightness Start Highest point End Pass type
(mag) Time Alt. Az. Time Alt. Az. Time Alt. Az.
23 Mar 4.1 19:26:19 10° NW 19:30:10 37° NE 19:33:42 11° ESE visible
23 Mar 4.2 21:04:01 10° NW 21:07:52 41° SW 21:08:39 36° SSW visible
24 Mar 4.3 20:47:23 10° NW 20:51:13 41° SW 20:52:50 27° S visible
25 Mar 4.3 20:30:45 10° NW 20:34:35 40° SW 20:37:05 19° S visible
26 Mar 4.4 20:14:06 10° NW 20:17:56 40° WSW 20:21:26 12° SSE visible
27 Mar 4.5 19:57:27 10° NW 20:01:18 40° WSW 20:05:02 10° SSE visible
28 Mar 4.5 19:40:49 10° NW 19:44:39 40° WSW 19:48:23 10° SSE visible
29 Mar 4.6 19:24:10 10° NW 19:28:00 40° WSW 19:31:44 10° SSE visible
